Home   Weather   Kaunas   Past weeks
Flag for Lithuania

Past Weather in Kaunas, Lithuania — Yesterday and Last 2 Weeks

Now
50 °F

Scattered clouds.


Feels Like: 47 °F
Forecast: 64 / 43 °F
Wind: 8 mph from East

Location: Kaunas

Current Time: Apr 21, 2019 at 7:19:31 pm

Latest Report: Apr 21, 2019 at 6:50 pm


Visibility: N/A

Pressure: 30.15 "Hg

Humidity: 67%

Dew Point: 39 °F

Location of KaunasLocation

Past Weather in Kaunas — Graph

°F

Kaunas Temperature Yesterday

Maximum temperature yesterday: 63 °F (at 4:20 pm)
Minimum temperature yesterday: 41 °F (at 5:50 am)
Average temperature yesterday: 51 °F

High & Low Weather Summary for the Past Weeks

 TemperatureHumidityPressure
High66 °F (Apr 18, 4:50 pm)93% (Apr 8, 7:20 am)30.51 "Hg (Apr 8, 7:20 am)
Low25 °F (Apr 13, 6:20 am)20% (Apr 16, 4:50 pm)29.80 "Hg (Apr 7, 2:50 pm)
Average44 °F53%30.22 "Hg
* Reported Apr 6 6:20 pm — Apr 21 6:20 pm, Kaunas. Weather by CustomWeather, © 2019

Note: Actual official high and low records may vary slightly from our data, if they occured in-between our weather recording intervals... More about our weather records

Advertising

Kaunas Weather History for the Previous 24 Hours

Scroll right to see more
 ConditionsComfort  
Time TempWeatherWind HumidityBarometerVisibility
6:20 pm
Sun, Apr 21
52 °FBroken clouds.10 mph62%30.15 "HgN/A
5:50 pm50 °FPartly sunny.10 mph67%30.15 "HgN/A
5:20 pm50 °FScattered clouds.10 mph62%30.15 "HgN/A
4:50 pm48 °FPartly sunny.14 mph66%30.15 "HgN/A
4:20 pm48 °FThundershowers. Partly sunny.10 mph62%30.15 "HgN/A
3:50 pm48 °FBroken clouds.13 mph62%30.15 "HgN/A
3:20 pm48 °FBroken clouds.13 mph62%30.15 "HgN/A
2:50 pm48 °FBroken clouds.8 mph62%30.15 "HgN/A
2:20 pm46 °FBroken clouds.12 mph66%30.15 "HgN/A
1:50 pm48 °FBroken clouds.9 mph58%30.15 "HgN/A
1:20 pm48 °FMostly cloudy.10 mph58%30.15 "HgN/A
12:50 pm48 °FMore clouds than sun.13 mph58%30.15 "HgN/A
12:20 pm48 °FMostly cloudy.10 mph58%30.15 "HgN/A
11:50 am48 °FBroken clouds.12 mph58%30.15 "HgN/A
11:20 am50 °FPartly sunny.9 mph58%30.15 "HgN/A
10:50 am48 °FPartly sunny.13 mph62%30.15 "HgN/A
10:20 am48 °FBroken clouds.15 mph62%30.15 "HgN/A
9:50 am48 °FPassing clouds.10 mph62%30.15 "HgN/A
8:50 am46 °FPassing clouds.6 mph66%30.15 "HgN/A
8:20 am46 °FPartly sunny.3 mph66%30.15 "HgN/A
7:50 am46 °FBroken clouds.5 mph66%30.15 "HgN/A
7:20 am45 °FPartly sunny.3 mph66%30.15 "HgN/A
6:50 am45 °FSunny.5 mph66%30.15 "Hg10 mi
6:20 am46 °FPassing clouds.5 mph62%30.18 "HgN/A
5:50 am46 °FPassing clouds.7 mph62%30.18 "HgN/A
5:20 am46 °FClear.8 mph62%30.18 "Hg10 mi
4:50 am46 °FLight rain. Clear.6 mph57%30.18 "HgN/A
4:20 am45 °FPassing clouds.6 mph61%30.18 "HgN/A
3:50 am45 °FPassing clouds.3 mph57%30.18 "HgN/A
3:20 am46 °FOvercast.5 mph53%30.21 "HgN/A
2:50 am46 °FOvercast.8 mph53%30.21 "HgN/A
2:20 am46 °FOvercast.7 mph53%30.21 "HgN/A
1:50 am46 °FMostly cloudy.6 mph57%30.21 "HgN/A
1:20 am46 °FPassing clouds.6 mph57%30.24 "HgN/A
12:50 am48 °FMostly cloudy.5 mph58%30.24 "HgN/A
12:20 am48 °FOvercast.6 mph58%30.24 "HgN/A
11:50 pm
Sat, Apr 20
50 °FPassing clouds.7 mph54%30.24 "HgN/A
11:20 pm50 °FPassing clouds.6 mph54%30.24 "HgN/A
10:50 pm50 °FPassing clouds.7 mph54%30.27 "HgN/A
10:20 pm52 °FPassing clouds.8 mph50%30.27 "HgN/A
9:50 pm52 °FPassing clouds.6 mph54%30.27 "HgN/A
9:20 pm52 °FClear.6 mph54%30.27 "Hg10 mi
8:50 pm54 °FLight rain. Passing clouds.7 mph51%30.27 "HgN/A
8:20 pm55 °FLight rain. Clear.8 mph44%30.27 "HgN/A
7:50 pm55 °FLight rain. Clear.9 mph44%30.27 "HgN/A
7:20 pm57 °FPassing clouds.10 mph41%30.27 "HgN/A
Weather by CustomWeather, © 2019

See weather overview